Time,TemperatureF,DewpointF,PressureIn,WindDirection,WindDirectionDegrees,WindSpeedMPH,WindSpeedGustMPH,Humidity,HourlyPrecipIn,Conditions,Clouds,dailyrainin,SoftwareType,DateUTC
2013-07-18 06:22:00,76.0,60.0,29.87,SSW,211,3.0,12.0,58,0.00,,,0.00,,2013-07-18 11:22:00,
2013-07-18 06:52:00,76.0,61.0,29.87,SW,232,4.0,10.0,59,0.00,,,0.00,,2013-07-18 11:52:00,
2013-07-18 07:01:00,76.0,60.0,29.86,South,173,5.0,12.0,58,0.00,,,0.00,,2013-07-18 12:01:00,
2013-07-18 07:22:00,77.0,61.0,29.86,SW,236,3.0,12.0,57,0.00,,,0.00,,2013-07-18 12:22:00,
2013-07-18 07:52:00,78.0,61.0,29.85,SW,221,4.0,12.0,55,0.00,,,0.00,,2013-07-18 12:52:00,
2013-07-18 08:43:00,79.0,61.0,29.84,SSW,210,5.0,14.0,54,0.00,,,0.00,,2013-07-18 13:43:00,
2013-07-18 11:22:00,86.0,68.0,29.80,WSW,240,5.0,14.0,56,0.00,,,0.00,,2013-07-18 16:22:00,
2013-07-18 11:32:00,86.0,69.0,29.79,SW,218,3.0,12.0,57,0.00,,,0.00,,2013-07-18 16:32:00,
2013-07-18 11:42:00,86.0,69.0,29.79,SW,218,3.0,12.0,57,0.00,,,0.00,,2013-07-18 16:42:00,
2013-07-18 11:52:00,87.0,70.0,29.79,SW,229,4.0,10.0,57,0.00,,,0.00,,2013-07-18 16:52:00,
2013-07-18 12:11:00,87.0,70.0,29.78,WSW,246,4.0,10.0,57,0.00,,,0.00,,2013-07-18 17:11:00,
2013-07-18 12:22:00,88.0,71.0,29.78,SSE,164,3.0,16.0,57,0.00,,,0.00,,2013-07-18 17:22:00,
2013-07-18 12:33:00,88.0,70.0,29.78,SW,236,5.0,17.0,56,0.00,,,0.00,,2013-07-18 17:33:00,
2013-07-18 12:43:00,88.0,70.0,29.78,SW,236,5.0,17.0,56,0.00,,,0.00,,2013-07-18 17:43:00,
2013-07-18 12:52:00,89.0,71.0,29.77,SW,233,6.0,12.0,56,0.00,,,0.00,,2013-07-18 17:52:00,
2013-07-18 13:01:00,89.0,72.0,29.76,South,178,4.0,10.0,57,0.00,,,0.00,,2013-07-18 18:01:00,
2013-07-18 13:11:00,89.0,72.0,29.76,South,178,4.0,10.0,57,0.00,,,0.00,,2013-07-18 18:11:00,
2013-07-18 13:22:00,89.0,71.0,29.76,SW,235,5.0,12.0,56,0.00,,,0.00,,2013-07-18 18:22:00,
2013-07-18 13:32:00,89.0,71.0,29.75,SW,236,4.0,14.0,55,0.00,,,0.00,,2013-07-18 18:32:00,
2013-07-18 13:43:00,89.0,71.0,29.75,SW,236,4.0,14.0,55,0.00,,,0.00,,2013-07-18 18:43:00,
2013-07-18 13:52:00,90.0,71.0,29.75,SW,233,6.0,18.0,54,0.00,,,0.00,,2013-07-18 18:52:00,
2013-07-18 14:01:00,90.0,72.0,29.74,WSW,244,4.0,12.0,55,0.00,,,0.00,,2013-07-18 19:01:00,
2013-07-18 14:11:00,90.0,72.0,29.74,WSW,244,4.0,12.0,55,0.00,,,0.00,,2013-07-18 19:11:00,
2013-07-18 14:22:00,90.0,71.0,29.74,WSW,240,6.0,16.0,53,0.00,,,0.00,,2013-07-18 19:22:00,
2013-07-18 14:32:00,90.0,71.0,29.73,WSW,252,7.0,23.0,53,0.00,,,0.00,,2013-07-18 19:32:00,
2013-07-18 14:43:00,90.0,71.0,29.73,WSW,252,7.0,23.0,53,0.00,,,0.00,,2013-07-18 19:43:00,
2013-07-18 14:53:00,90.0,72.0,29.73,WSW,238,5.0,9.0,55,0.00,,,0.00,,2013-07-18 19:53:00,
2013-07-18 15:01:00,90.0,71.0,29.72,WSW,242,6.0,14.0,53,0.00,,,0.00,,2013-07-18 20:01:00,
2013-07-18 15:11:00,90.0,71.0,29.72,WSW,242,6.0,14.0,53,0.00,,,0.00,,2013-07-18 20:11:00,
2013-07-18 15:22:00,90.0,72.0,29.72,SW,236,4.0,12.0,55,0.00,,,0.00,,2013-07-18 20:22:00,
2013-07-18 15:32:00,90.0,71.0,29.72,SSE,156,6.0,15.0,54,0.00,,,0.00,,2013-07-18 20:32:00,
2013-07-18 15:43:00,90.0,71.0,29.72,SSE,156,6.0,15.0,54,0.00,,,0.00,,2013-07-18 20:43:00,
2013-07-18 15:52:00,91.0,72.0,29.72,WSW,246,5.0,14.0,54,0.00,,,0.00,,2013-07-18 20:52:00,
2013-07-18 16:01:00,91.0,71.0,29.71,SSW,192,8.0,17.0,53,0.00,,,0.00,,2013-07-18 21:01:00,
2013-07-18 16:11:00,91.0,71.0,29.71,SSW,192,8.0,17.0,53,0.00,,,0.00,,2013-07-18 21:11:00,
2013-07-18 16:22:00,91.0,71.0,29.70,SSE,163,8.0,22.0,53,0.00,,,0.00,,2013-07-18 21:22:00,
2013-07-18 16:32:00,91.0,71.0,29.70,SSE,163,8.0,22.0,53,0.00,,,0.00,,2013-07-18 21:32:00,
2013-07-18 16:43:00,91.0,71.0,29.70,SSE,163,8.0,22.0,53,0.00,,,0.00,,2013-07-18 21:43:00,
2013-07-18 16:52:00,90.0,72.0,29.70,SW,214,3.0,14.0,56,0.00,,,0.00,,2013-07-18 21:52:00,
2013-07-18 17:01:00,90.0,72.0,29.69,WSW,245,5.0,11.0,56,0.00,,,0.00,,2013-07-18 22:01:00,
2013-07-18 17:11:00,90.0,72.0,29.69,WSW,245,5.0,11.0,56,0.00,,,0.00,,2013-07-18 22:11:00,
2013-07-18 17:22:00,89.0,72.0,29.68,WNW,287,5.0,11.0,57,0.00,,,0.00,,2013-07-18 22:22:00,
2013-07-18 17:32:00,89.0,72.0,29.68,SW,229,5.0,13.0,58,0.00,,,0.00,,2013-07-18 22:32:00,
2013-07-18 17:43:00,89.0,72.0,29.68,SW,229,5.0,13.0,58,0.00,,,0.00,,2013-07-18 22:43:00,
2013-07-18 17:53:00,88.0,71.0,29.68,West,271,7.0,14.0,58,0.00,,,0.00,,2013-07-18 22:53:00,
2013-07-18 18:02:00,87.0,70.0,29.68,WSW,237,5.0,14.0,58,0.00,,,0.00,,2013-07-18 23:02:00,
2013-07-18 18:11:00,87.0,70.0,29.68,WSW,237,5.0,14.0,58,0.00,,,0.00,,2013-07-18 23:11:00,
2013-07-18 18:22:00,87.0,70.0,29.68,SSW,208,5.0,9.0,57,0.00,,,0.00,,2013-07-18 23:22:00,
2013-07-18 18:32:00,87.0,69.0,29.68,WSW,242,3.0,9.0,55,0.00,,,0.00,,2013-07-18 23:32:00,
2013-07-18 18:42:00,87.0,69.0,29.68,WSW,242,3.0,9.0,55,0.00,,,0.00,,2013-07-18 23:42:00,
2013-07-18 18:52:00,87.0,70.0,29.67,SW,235,4.0,10.0,58,0.00,,,0.00,,2013-07-18 23:52:00,
2013-07-18 19:01:00,87.0,70.0,29.66,WSW,254,3.0,9.0,57,0.00,,,0.00,,2013-07-19 00:01:00,
2013-07-18 19:11:00,87.0,70.0,29.66,WSW,254,3.0,9.0,57,0.00,,,0.00,,2013-07-19 00:11:00,
2013-07-18 19:22:00,87.0,70.0,29.66,West,275,3.0,7.0,57,0.00,,,0.00,,2013-07-19 00:22:00,
2013-07-18 19:32:00,87.0,69.0,29.66,SW,215,2.0,8.0,56,0.00,,,0.00,,2013-07-19 00:32:00,
2013-07-18 19:43:00,87.0,69.0,29.66,SW,215,2.0,8.0,56,0.00,,,0.00,,2013-07-19 00:43:00,
2013-07-18 19:52:00,89.0,72.0,29.65,SW,224,4.0,6.0,57,0.00,,,0.00,,2013-07-19 00:52:00,
2013-07-18 20:01:00,89.0,72.0,29.65,WSW,244,3.0,8.0,58,0.00,,,0.00,,2013-07-19 01:01:00,
2013-07-18 20:11:00,89.0,72.0,29.65,WSW,244,3.0,8.0,58,0.00,,,0.00,,2013-07-19 01:11:00,
2013-07-18 20:22:00,88.0,71.0,29.65,WSW,239,1.0,6.0,57,0.00,,,0.00,,2013-07-19 01:22:00,
2013-07-18 20:32:00,87.0,70.0,29.65,WSW,250,2.0,6.0,58,0.00,,,0.00,,2013-07-19 01:32:00,
2013-07-18 20:42:00,87.0,70.0,29.65,WSW,250,2.0,6.0,58,0.00,,,0.00,,2013-07-19 01:42:00,
2013-07-18 20:52:00,87.0,70.0,29.66,SSW,213,0.0,10.0,58,0.00,,,0.00,,2013-07-19 01:52:00,
2013-07-18 21:01:00,86.0,68.0,29.65,SSW,205,0.0,4.0,56,0.00,,,0.00,,2013-07-19 02:01:00,
2013-07-18 21:11:00,86.0,68.0,29.65,SSW,205,0.0,4.0,56,0.00,,,0.00,,2013-07-19 02:11:00,
2013-07-18 23:12:00,81.0,65.0,29.69,WSW,254,4.0,8.0,59,0.00,,,0.00,,2013-07-19 04:12:00,
2013-07-18 23:22:00,80.0,65.0,29.70,WSW,258,3.0,6.0,61,0.00,,,0.00,,2013-07-19 04:22:00,
2013-07-18 23:33:00,79.0,65.0,29.70,WSW,245,3.0,6.0,63,0.00,,,0.00,,2013-07-19 04:33:00,
2013-07-18 23:43:00,79.0,65.0,29.70,WSW,245,3.0,6.0,63,0.00,,,0.00,,2013-07-19 04:43:00,
2013-07-18 23:52:00,79.0,65.0,29.71,West,263,3.0,7.0,62,0.00,,,0.00,,2013-07-19 04:52:00,